SL-16 DEB

Satellite information

Favourite Embed

Satellite Type and Status

DEBRISIN ORBIT

Key statistics

Satellite SL-16 DEB at a glance.

Uptime

12044

Days in orbit

Revolutions

≈ 14.0

Per day

Orbit

LEO

Low Earth Orbit

Inclination

70.9

Latest

Satellite identification and parameters

Extended collection of information and parameters for SL-16 DEB.

Object identification

Identified? True

Debris? True

Object name: SL-16 DEB

International designator: 1992-093KN

Object number (NORAD): 39722

Object ID (CCSDS): 39722

Country: COMMONWEALTH OF INDEPENDENT STATES (CIS)

Current information (Y/N): Y

RCS size: SMALL

Orbital parameters

Period: 102.717 minutes

Inclination: 70.8946 deg

SMA: 7265.323 km

Apoapsis: 962.924 km

Periapsis: 811.452 km

RAAN: 40.0299 deg

Eccentricy: 0.01042433

Argument of periapsis: 180.398 deg

Mean anomaly: 253.5646 deg

Mean motion: 14.0191077 rev/day

Mean motion (dot): 0.00000688 rev/day2

B* drag term: 0.00046030006 1/REarth

Two-line elements (TLE)

Creation date: Dec. 14, 2025, 3:07 a.m.

Reference frame: TEME

Reference center: EARTH

Epoch: Dec. 13, 2025, 2 p.m. UTC

TLE line 0: 0 SL-16 DEB

TLE line 1: 1 39722U 92093KN 25347.58390344 .00000688 00000-0 46030-3 0 9991

TLE line 2: 2 39722 70.8946 40.0299 0104243 180.3980 253.5646 14.01910770595635

Live tracking on map

Real-time ground track for satellite SL-16 DEB.

In-orbit conjunctions

A list of the most updated potential collisions computed for object SL-16 DEB.

Target Orbit TCA Probability of collision Miss distance Type
SL-8 R/B LEO 2025-05-21 04:23:04 0.0001451764 568.0 (m) ROCKET BODY
AAU CUBESAT SSO 2024-06-27 05:22:58 0.0001124644 601.0 (m) PAYLOAD

Associated space launch

Second generation ELING satellite

SL-16 DEB was lifted into orbit during the mission ‘Zenit-2 | Tselina-2 12’, on board a Zenit-2 space rocket.

The launch took place on Dec. 25, 1992, 5:56 a.m. from 45/1.

For more information about the launch, click the button.

Launch to space Zenit-2 | Tselina-2 12
Zenit-2 | Tselina-2 12

Agency: N/A

Status: Launch Successful

Launch date: Dec. 25, 1992, 5:56 a.m. UTC

Rocket: Zenit-2

Launch pad: 45/1

Location: Baikonur Cosmodrome, Republic of Kazakhstan

...

Latest news about this satellite

There are no fresh news available about this satellite. Check back as we update our databases every day.


Newsletter sign-up

Weekly statistics, charts and insights to help you stay on top of the space industry.